AirNav   Everest Fuels
 
 1030 users online  

KUDG Darlington County Airport
Darlington, South Carolina, USA

GOING TO DARLINGTON?


FAA INFORMATION EFFECTIVE 09 SEPTEMBER 2021

Location

FAA Identifier: UDG
Lat/Long: 34-26-50.9600N 079-53-11.1270W
34-26.849333N 079-53.185450W
34.4474889,-79.8864242
(estimated)
Elevation: 192.2 ft. / 58.6 m (surveyed)
Variation: 06W (1985)
From city: 9 miles N of DARLINGTON, SC
Time zone: UTC -4 (UTC -5 during Standard Time)
Zip code: 29593

Airport Operations

Airport use: Open to the public
Activation date: 10/1943
Control tower: no
ARTCC: JACKSONVILLE CENTER
FSS: ANDERSON FLIGHT SERVICE STATION
NOTAMs facility: UDG (NOTAM-D service available)
Attendance: MON-FRI 0800-1700
Wind indicator: yes
Segmented circle: yes
Lights: ODALS RWY 05; MIRL RWY 05/23; AND TWY LGTS PRESET LOW INTST DUSK-2300; TO INCR INTST - CTAF. AFT 2300, ACTVT ODALS RWY 05; REIL RWY 05 & 23; PAPI RWY 05 & 23; MIRL RWY 05/23; AND TWY LGTS - CTAF.
Beacon: white-green (lighted land airport)
Operates sunset to sunrise.

Airport Communications

CTAF/UNICOM: 123.0
WX AWOS-3PT: 119.925 (843-393-8220)
FLORENCE APPROACH: 118.6
FLORENCE DEPARTURE: 118.6
CLEARANCE DELIVERY: 118.55
WX AWOS-3 at HVS (12 nm W): 118.225 (843-339-9625)
WX AWOS-3PT at BBP (13 nm NE): 123.825 (843-479-5817)
WX AWOS-3 at CQW (16 nm N): 124.825 (843-537-3301)
WX ASOS at FLO (18 nm SE): PHONE 843-665-1306
  • APCH/DEP SVC PRVDD BY JACKSONVILLE ARTCC ON FREQS 133.45/306.3 (FLORENCE RCAG) WHEN FLORENCE APCH CTL CLSD.

Nearby radio navigation aids

VOR radial/distance  VOR name  Freq  Var
FLOr322/17.2FLORENCE VORTAC115.2003W
CTFr125/22.7CHESTERFIELD VOR/DME108.2003W

 
NDB name  Hdg/Dist  Freq  Var  ID
DARLINGTONat field24506WUDG ..- -.. --.
HARTSVILLE085/11.834107WHVS .... ...- ...
BENNETTSVILLE224/12.823008WBES -... . ...
DILLON279/25.627409WDLC -.. .-.. -.-.
EVANS356/36.042006WCFY -.-. ..-. -.--
SUMTER048/36.125207WSMS ... -- ...

Airport Services

Fuel available: 100LL JET-A
Parking: hangars and tiedowns
Powerplant service: NONE
Bottled oxygen: NONE
Bulk oxygen: NONE

Runway Information

Runway 5/23

Dimensions: 5500 x 100 ft. / 1676 x 30 m
Surface: concrete, in good condition
Weight bearing capacity: 
PCN 6 /F/C/Y/T
Single wheel: 17.0
Double wheel: 27.0
Runway edge lights: medium intensity
RUNWAY 5  RUNWAY 23
Latitude: 34-26.521218N34-27.177413N
Longitude: 079-53.563143W079-52.807717W
Elevation: 188.5 ft.183.1 ft.
Traffic pattern: leftleft
Runway heading: 049 magnetic, 043 true229 magnetic, 223 true
Markings: nonprecision, in good conditionnonprecision, in good condition
Visual slope indicator: 2-light PAPI on left (3.00 degrees glide path)2-light PAPI on left (3.00 degrees glide path)
Approach lights: ODALS: omnidirectional approach lighting system
Runway end identifier lights: yesyes
Touchdown point: yes, no lightsyes, no lights
Obstructions: none5 ft. brush, 216 ft. from runway, 2 ft. right of centerline, 3:1 slope to clear

Airport Ownership and Management from official FAA records

Ownership: Publicly-owned
Owner: DARLINGTON COUNTY
COUNTY COURTHOUSE
DARLINGTON, SC 29532
Phone (843) 393-4100
Manager: BARRY KENNETT
313 G.GRAHAM SEGARS PARKWAY
DARLINGTON, SC 29540
Phone 843-393-9928

Airport Operational Statistics

Aircraft based on the field: 9
Single engine airplanes: 7
Jet airplanes: 2
    
Aircraft operations: avg 117/week *
60% local general aviation
30% transient general aviation
8% air taxi
2% military
* for 12-month period ending 18 May 2021

Additional Remarks

AFTER HRS SERVICE CALL 843-393-9928.
FOR CD CTC FLORENCE APCH AT 843-669-5194, WHEN APCH CLSD CTC JACKSONVILLE ARTCC AT 904-845-1592.

Instrument Procedures

NOTE: All procedures below are presented as PDF files. If you need a reader for these files, you should download the free Adobe Reader.

NOT FOR NAVIGATION. Please procure official charts for flight.
FAA instrument procedures published for use from 09 September 2021 at 0901Z to 07 October 2021 at 0900Z.

 
IAPs - Instrument Approach Procedures
RNAV (GPS) RWY 05   download (228KB)
RNAV (GPS) RWY 23   download (260KB)
VOR-A   download (178KB)
NOTE: Special Alternate Minimums apply   download (65KB)
NOTE: Special Take-Off Minimums/Departure Procedures apply   download (209KB)

Other nearby airports with instrument procedures:

KHVS - Hartsville Regional Airport (12 nm W)
KBBP - Marlboro County Jetport - H E Avent Field (13 nm NE)
KCQW - Cheraw Municipal Airport/Lynch Bellinger Field (16 nm N)
KFLO - Florence Regional Airport (18 nm SE)
KDLC - Dillon County Airport (26 nm E)
 
Loc | Ops | Rwys | IFR | FBO | Links
Com | Nav | Svcs | Stats | Notes
Area around KUDG (Darlington County Airport)
 
Road maps at: MapQuest Bing Google
 
Aerial photo
WARNING: Photo may not be current or correct
Aerial photo of KUDG (Darlington County Airport)
Photo taken 11-Sep-2009

Do you have a better or more recent aerial photo of Darlington County Airport that you would like to share? If so, please send us your photo.

 
Sectional chart

 
Airport distance calculator
Flying to Darlington County Airport? Find the distance to fly.

From to KUDG

Sunrise and sunset
Times for 21-Sep-2021
 Local
(UTC-4)
 Zulu
(UTC)
Morning civil twilight06:4310:43
Sunrise07:0811:08
Sunset19:1723:17
Evening civil twilight19:4323:43

Current date and time
Zulu (UTC)  22-Sep-2021 01:52:07
Local (UTC-4)  21-Sep-2021 21:52:07
 
METAR
KUDG 220056Z AUTO 11004KT 10SM -RA OVC004 23/23 A3006 RMK AO2 CIG 003V007 SLP178 P0000 T02330233
KHVS 
12nm W 
220135Z AUTO 11003KT 10SM 22/22 A3007 RMK AO2
KBBP 
13nm NE 
220135Z AUTO 09004KT 10SM BKN004 OVC008 23/23 A3005 RMK AO2 P0001
KCQW 
16nm N 
220135Z AUTO 00000KT 10SM OVC004 23/23 A3006 RMK AO2 PWINO
KFLO 
18nm SE 
220053Z 11003KT 10SM BKN110 25/22 A3005 RMK AO2 RAE13 SLP173 P0000 T02500217
TAF
KFLO 
18nm SE 
220016Z 2200/2224 09005KT P6SM SCT007 SCT018 BKN030 TEMPO 2200/2204 -SHRA BKN005 FM220600 12005KT P6SM VCSH BKN007 FM221200 14006KT P6SM BKN005 FM222300 17008KT P6SM BKN080
NOTAMs
Click for the latest NOTAMs
NOTAMs are issued by the DoD/FAA and will open in a separate window not controlled by AirNav.

 

 
 

FBO, Fuel Providers, and Aircraft Ground Support

  
 Business Name 
 
 Contact 
 
 Services / Description 
 
Fuel Prices
 
Comments
  
Darlington County Jetport 843-393-9928
no information available

If you are affiliated with Darlington County Jetport and would like to show here your services, contact info, web link, logo, and more, click here
100LL Jet A
AS $4.15 --- 
FS --- $3.75 
 Updated 08-Sep-2021
 
   3 read write
AS=Assisted/Self Service
FS=Full service
Update Fuel Prices
 

Would you like to see your business listed on this page?

 If your business provides an interesting product or service to pilots, flight crews, aircraft, or users of the Darlington County Airport, you should consider listing it here.  To start the listing process, click on the button below
 
Add a business
 

Other Pages about Darlington County Airport

Update a link
 
Copyright © AirNav, LLC. All rights reserved. Privacy Policy  Contact